GFSFLT1_925_thetae_021.txt.gz
Theta_e
324 325 324 328 334 340 339 337 333 328 324 322 321 319 318 319 319 320 323 324 325 326 324 324 331 334 335 334 332 330 329 327
323 325 325 325 328 332 337 339 338 334 329 326 324 324 320 320 321 322 324 326 326 327 326 324 333 334 334 335 333 331 330 330
324 326 326 327 324 327 334 337 339 339 334 329 328 326 322 322 326 324 324 326 326 327 327 327 333 333 334 334 334 332 331 332
321 322 324 325 327 328 327 332 336 341 339 333 329 330 327 327 330 330 327 326 325 327 326 332 334 335 335 334 333 333 332 332
321 323 324 325 326 326 326 326 330 339 341 339 335 332 331 331 331 332 330 329 326 327 327 334 335 333 334 335 333 332 333 332
323 324 324 325 325 325 327 327 329 334 340 340 339 337 335 333 333 333 332 330 326 328 329 335 336 334 337 335 333 333 333 332
322 323 323 324 325 325 325 326 328 331 340 341 339 339 338 337 336 335 332 329 329 329 332 336 335 336 336 335 334 334 334 333
321 322 324 324 324 325 325 327 329 336 341 341 339 339 339 339 338 336 333 333 331 334 335 336 336 335 335 335 335 335 333 331
321 322 323 323 325 326 326 328 332 339 342 341 339 340 340 340 340 339 338 338 339 336 337 336 336 335 334 335 335 333 332 330
319 321 323 325 326 327 326 328 330 336 340 340 340 340 339 340 340 340 340 341 339 338 337 335 335 335 335 335 333 331 330 329
319 319 320 323 325 326 326 328 329 335 339 341 341 340 338 339 340 341 341 340 339 338 334 335 336 335 334 332 330 329 329 327
317 318 317 318 321 323 325 327 332 339 341 341 340 338 336 335 338 339 337 336 338 335 336 335 334 333 331 329 328 329 328 327
316 317 315 319 320 325 330 334 339 342 343 341 340 336 336 336 336 336 335 334 336 336 335 333 331 329 328 328 328 328 328 328
318 331 335 337 341 343 343 344 344 344 343 341 340 337 335 334 334 335 335 335 334 333 331 330 326 327 328 328 328 328 328 327
334 337 337 339 341 343 343 343 342 344 343 340 340 337 336 334 334 334 333 332 331 331 330 328 326 327 328 329 329 328 327 327
336 337 337 338 339 342 342 340 340 342 341 339 338 337 336 335 335 334 333 332 331 330 329 328 327 327 329 330 329 328 328 328
339 338 336 336 337 338 338 337 336 338 337 337 335 335 334 334 333 332 331 330 329 328 328 327 327 328 330 330 330 329 328 328
339 337 335 334 335 335 336 334 332 333 333 333 332 332 332 331 332 332 331 330 327 327 327 327 328 329 329 329 329 329 328 328
338 335 333 334 333 333 333 332 332 331 331 332 331 331 331 331 331 331 329 327 326 326 327 326 328 328 328 329 329 328 327 328
337 336 334 333 331 332 333 332 332 332 332 332 331 331 330 329 329 328 327 327 327 328 328 327 327 328 328 329 329 329 328 328

GFSFLT1_925_thetae_024.txt.gz
Theta_e
324 324 326 333 336 339 338 337 332 329 328 327 323 321 318 318 317 318 320 321 321 323 323 323 323 330 333 334 333 331 330 329
320 322 325 326 328 330 337 338 338 333 331 330 326 326 322 321 320 321 322 323 324 325 324 324 323 328 333 334 334 333 331 330
323 324 325 324 324 326 327 330 334 337 335 333 330 327 325 323 324 324 325 326 323 324 324 325 324 327 333 334 335 334 332 331
321 321 322 322 323 324 325 326 328 337 338 336 334 330 329 329 326 326 329 328 325 323 324 326 325 328 333 334 334 334 333 331
319 322 322 324 324 324 324 324 325 333 336 338 336 333 331 330 329 329 325 329 326 323 323 326 325 329 333 334 334 333 333 332
321 322 322 322 322 323 323 323 323 326 331 335 337 333 332 331 330 330 330 332 330 324 324 326 325 329 335 333 334 334 332 333
319 321 321 322 322 323 323 323 323 324 329 336 338 336 334 333 333 333 334 334 331 327 326 325 325 333 335 334 335 333 333 333
318 320 321 322 323 322 322 323 323 323 330 337 339 338 337 335 335 334 334 334 332 330 328 328 327 336 335 336 334 334 333 334
318 320 321 321 321 321 323 323 324 325 336 338 339 338 338 338 337 336 336 335 333 331 331 328 333 335 335 334 334 334 333 331
316 318 319 319 320 321 324 325 325 328 334 338 338 338 338 338 338 338 338 337 333 332 331 332 335 335 334 334 334 333 331 329
316 315 316 319 319 321 322 323 325 330 337 339 339 339 338 338 338 339 338 337 336 335 335 335 336 335 334 334 334 331 329 327
315 316 315 317 318 320 320 322 325 330 337 339 338 337 335 337 338 339 339 338 338 338 337 336 335 335 335 333 331 329 328 326
313 314 314 316 319 324 320 320 324 333 337 339 339 338 337 338 339 339 339 338 339 338 337 334 335 334 332 329 328 328 328 327
312 312 330 333 337 339 337 334 336 338 339 339 339 338 335 335 337 338 336 335 336 335 335 335 333 330 327 327 328 327 327 327
312 330 334 338 337 337 339 340 339 340 340 339 338 338 336 336 335 335 334 333 335 335 334 331 329 326 327 327 328 328 328 327
330 336 337 338 338 338 339 339 338 339 337 336 336 336 335 334 335 335 335 334 333 332 331 329 326 327 327 328 329 328 327 327
335 336 338 336 336 336 337 337 336 336 336 335 335 336 335 334 334 334 333 332 331 330 329 328 327 326 327 329 329 329 328 328
336 337 333 333 334 335 335 336 336 335 336 336 336 335 335 334 333 332 331 329 328 328 328 327 327 327 329 329 329 329 328 327
336 334 331 331 332 332 332 333 332 333 334 333 333 332 332 332 331 331 330 328 326 327 326 326 327 328 328 328 328 328 328 327
335 333 331 330 330 330 330 331 331 331 331 331 330 330 330 331 331 330 328 326 326 326 327 327 327 327 327 327 328 328 328 327

GFSFLT1_925_thetae_030.txt.gz
Theta_e
331 332 331 332 332 332 340 344 346 344 341 338 339 340 337 336 335 333 333 331 332 333 333 334 333 331 337 336 338 338 337 336
331 330 331 331 330 331 332 343 347 348 344 342 341 340 340 338 337 336 335 334 335 334 333 335 333 334 334 339 339 339 339 337
330 330 329 329 330 331 332 336 345 348 348 344 344 342 340 340 338 338 337 335 335 336 333 333 335 333 335 338 338 339 339 338
330 330 330 330 330 331 332 333 336 345 346 347 345 345 342 341 340 337 340 336 336 335 334 334 333 334 333 335 338 338 339 337
330 329 330 330 330 331 333 334 336 342 342 343 343 342 343 341 341 340 339 340 335 335 335 334 332 333 334 334 337 340 337 336
328 328 329 330 332 331 331 331 329 332 336 337 339 339 340 341 340 341 340 341 338 337 333 334 331 332 333 331 337 335 337 336
328 328 329 328 328 330 331 331 331 332 332 336 338 340 341 340 340 341 341 341 341 337 336 333 332 332 332 333 333 335 336 339
326 325 325 326 327 328 330 330 331 335 334 336 339 340 341 341 340 340 341 341 341 339 337 334 334 332 332 331 334 336 340 337
324 323 324 324 325 328 330 332 335 336 333 336 340 340 342 341 340 341 341 341 341 340 338 337 335 332 331 334 336 339 337 338
325 324 323 324 327 328 330 332 333 337 334 338 339 342 342 342 341 341 342 341 341 340 339 338 337 333 333 336 337 338 339 337
325 325 324 324 326 328 329 331 334 335 335 338 344 343 344 344 343 343 341 342 342 341 341 340 338 334 335 336 340 337 336 336
324 324 325 324 324 325 327 330 331 332 336 338 343 343 343 343 343 341 343 343 342 340 340 340 338 334 335 340 338 336 338 336
323 323 323 322 322 324 325 329 336 336 338 340 344 343 344 345 343 344 342 340 341 341 340 338 336 336 341 338 338 338 337 332
322 324 322 323 323 324 330 340 342 338 339 343 345 345 345 345 346 341 341 341 341 341 340 340 340 340 340 338 337 336 334 330
323 324 325 326 332 337 341 343 343 340 341 343 345 347 346 347 342 343 344 343 342 342 342 342 341 339 338 337 336 333 332 330
329 326 325 330 338 345 345 344 343 342 343 344 346 347 346 346 345 345 344 344 343 342 342 341 340 339 337 335 332 331 331 331
333 328 337 342 346 347 346 345 345 345 345 346 346 346 346 346 345 344 343 342 342 341 340 340 338 335 333 333 330 331 331 332
331 338 346 347 347 347 347 347 346 346 346 345 346 346 346 345 343 340 340 340 339 339 338 336 333 332 332 332 331 332 333 333
340 344 347 347 347 347 347 346 346 345 344 344 344 343 342 341 340 340 339 338 337 335 333 332 331 331 332 333 333 333 333 333
342 344 347 347 346 346 346 345 344 344 343 343 342 340 340 339 339 338 337 335 333 331 330 329 330 332 332 332 332 332 332 331

GFSFLT1_925_thetae_033.txt.gz
Theta_e
339 338 337 337 337 339 340 348 349 347 344 340 344 343 339 337 335 333 334 330 331 333 332 332 335 331 334 335 337 338 337 338
335 334 334 334 334 333 334 338 352 351 346 343 340 342 344 340 339 336 335 335 333 334 333 335 335 334 335 337 338 338 337 340
333 333 333 333 333 333 334 335 347 352 351 345 344 343 343 344 342 340 339 336 335 335 335 334 337 334 335 337 339 340 342 340
332 332 333 333 333 333 332 334 340 351 351 348 348 347 343 344 343 343 341 338 338 337 337 336 335 336 335 335 338 339 340 340
333 331 333 332 332 333 333 335 338 343 347 351 349 344 347 344 343 343 345 342 339 339 339 338 335 336 335 336 337 338 339 340
332 331 330 331 332 333 334 334 334 337 346 348 346 342 342 342 343 343 345 345 343 342 339 338 337 335 336 336 336 335 340 337
332 330 330 331 333 334 335 334 334 335 338 339 340 341 341 340 340 342 344 345 345 343 341 338 338 336 335 335 334 336 337 337
330 330 330 330 331 332 332 333 332 335 336 337 338 337 339 341 341 342 343 346 345 345 343 340 338 337 335 334 334 336 335 336
329 329 328 327 328 330 332 334 336 335 334 335 334 334 338 343 344 343 343 345 345 345 343 342 340 337 336 335 335 336 337 338
329 328 328 329 330 330 331 334 336 339 336 336 333 337 340 343 344 344 344 345 345 345 343 342 340 338 338 337 336 336 336 341
330 329 330 329 330 331 331 333 335 338 336 337 339 342 345 344 345 345 346 345 345 344 343 343 342 339 338 337 338 337 339 341
327 328 331 330 329 328 330 332 335 338 341 337 337 342 343 344 346 346 346 345 343 343 343 342 343 341 338 338 337 338 341 339
325 326 326 325 326 328 329 332 335 337 338 337 336 343 343 345 346 348 344 344 344 343 343 342 341 340 337 338 341 340 339 337
325 325 325 324 324 325 327 332 335 337 341 342 345 346 346 347 346 346 347 344 343 342 342 342 341 338 341 342 340 340 338 336
324 324 324 325 325 326 326 328 335 342 344 343 346 348 350 349 350 345 343 343 342 343 343 341 340 343 342 341 340 339 337 334
327 326 326 326 327 333 337 340 343 345 343 345 347 349 349 350 346 344 344 344 344 343 343 344 344 342 339 339 338 336 334 333
330 331 330 327 331 342 345 346 346 345 345 346 348 348 348 346 348 347 346 346 345 345 344 343 341 339 339 339 334 333 332 332
334 331 332 340 345 347 347 347 347 347 347 348 349 349 350 347 348 345 345 345 344 344 342 340 339 338 336 335 332 332 333 334
335 341 345 347 348 348 348 348 348 348 348 348 348 347 345 345 344 344 343 342 340 339 338 337 336 334 333 333 334 333 333 335
342 345 347 348 348 347 348 347 347 347 347 346 346 346 344 343 341 341 339 338 337 336 335 333 332 331 333 334 334 333 333 334